This is the latest recevied weather packets stored in our database for station/object PP5ABU-13. If no packets are shown the sender has not sent any weather packets the latest 10 day(s).
| Time | Temp. | Humidity | Pressure | Rain* | Wind** | Luminosity | Snow |
|---|---|---|---|---|---|---|---|
| 1777765505 | 20.56° C | 83% | 1016.2 hPa | 0 mm | - | - | - |
| 1777764605 | 21.11° C | 82% | 1016.2 hPa | 0 mm | - | - | - |
| 1777763704 | 21.11° C | 83% | 1016 hPa | 0 mm | - | - | - |
| 1777762804 | 21.11° C | 83% | 1015.6 hPa | 0 mm | - | - | - |
| 1777761904 | 21.11° C | 82% | 1015.4 hPa | 0 mm | - | - | - |
| 1777761005 | 21.11° C | 82% | 1015.2 hPa | 0 mm | - | - | - |
| 1777760104 | 21.11° C | 81% | 1015 hPa | 0 mm | - | - | - |
| 1777759205 | 21.67° C | 82% | 1014.9 hPa | 0 mm | - | - | - |
| 1777758304 | 21.67° C | 83% | 1015.1 hPa | 0 mm | - | - | - |
| 1777757405 | 21.67° C | 84% | 1014.8 hPa | 0 mm | - | - | - |
| 1777756504 | 21.67° C | 87% | 1014.7 hPa | 0 mm | - | - | - |
| 1777755604 | 21.67° C | 88% | 1014.1 hPa | 0 mm | - | - | - |
| 1777754704 | 21.67° C | 90% | 1014.3 hPa | 0 mm | - | - | - |
| 1777753804 | 22.22° C | 91% | 1013.9 hPa | 0 mm | - | - | - |
| 1777752904 | 22.22° C | 92% | 1013.5 hPa | 0 mm | - | - | - |
| 1777752004 | 22.22° C | 90% | 1013.3 hPa | 0 mm | - | - | - |
| 1777751105 | 22.78° C | 87% | 1012.7 hPa | 0 mm | - | - | - |
| 1777750204 | 23.33° C | 86% | 1012.5 hPa | 0 mm | - | - | - |
| 1777749304 | 23.89° C | 84% | 1012.2 hPa | 0 mm | - | - | - |
| 1777748404 | 23.89° C | 84% | 1011.6 hPa | 0 mm | - | - | - |
| 1777747504 | 23.89° C | 84% | 1011.7 hPa | 0 mm | - | - | - |
| 1777746604 | 23.89° C | 83% | 1011.9 hPa | 0 mm | - | - | - |
| 1777745704 | 24.44° C | 84% | 1011.9 hPa | 0 mm | - | - | - |
| 1777744805 | 24.44° C | 87% | 1011.6 hPa | 0 mm | - | - | - |
| 1777743904 | 23.89° C | 88% | 1011.4 hPa | 0 mm | - | - | - |
* Rain latest hour (hover to see other rain measurements)
** Current wind speed in m/s (hover to see current wind gust speed)